EW0860 Weather Reports


Display with metric or nautical units.
time (UTC)temp
F
wind
direction
speed
MPH
gust
MPH
rain 1hr
in
rain 24hr
in
rain mn
in
humidity
%
barometer
mb
20260904194512 96 227 3.0 10.0 0.00 0.00 0.00 49 1008.2
20260904193012 95 146 4.0 11.0 0.00 0.00 0.00 49 1008.3
20260904191510 96 256 4.0 10.0 0.00 0.00 0.00 48 1008.4
20260904190007 95 222 4.0 10.0 0.00 0.00 0.00 50 1008.5
20260904184505 94 154 4.0 10.0 0.00 0.00 0.00 51 1008.6
20260904183003 94 108 3.0 9.0 0.00 0.00 0.00 53 1008.6
20260904181501 93 163 4.0 10.0 0.00 0.00 0.00 54 1008.7
20260904174556 92 211 3.0 13.0 0.00 0.00 0.00 55 1009.0
20260904173058 92 235 4.0 10.0 0.00 0.00 0.00 56 1009.1
20260904171611 91 257 4.0 11.0 0.00 0.00 0.00 57 1009.1
20260904170050 91 189 2.0 12.0 0.00 0.00 0.00 59 1009.3
20260904164558 90 106 4.0 11.0 0.00 0.00 0.00 60 1009.4
20260904163046 89 220 4.0 11.0 0.00 0.00 0.00 60 1009.3
20260904161548 89 172 5.0 10.0 0.00 0.00 0.00 62 1009.3
20260904160042 89 82 2.0 10.0 0.00 0.00 0.00 64 1009.4
20260904154540 88 240 4.0 14.0 0.00 0.00 0.00 65 1009.5
20260904153054 86 160 4.0 13.0 0.00 0.00 0.00 67 1009.5
20260904151534 86 204 2.0 10.0 0.00 0.00 0.00 69 1009.6
20260904150039 85 193 1.0 8.0 0.00 0.00 0.00 70 1009.5
20260904144528 84 116 3.0 8.0 0.00 0.00 0.00 71 1009.4
20260904143026 83 233 5.0 13.0 0.00 0.00 0.00 72 1009.6
20260904141524 83 135 1.0 4.0 0.00 0.00 0.00 73 1009.5
20260904140032 82 224 2.0 7.0 0.00 0.00 0.00 74 1009.6
20260904134528 81 189 1.0 4.0 0.00 0.00 0.00 76 1009.7
20260904133023 80 133 0.0 3.0 0.00 0.00 0.00 78 1009.7
20260904131536 79 104 1.0 3.0 0.00 0.00 0.00 79 1009.6
20260904130020 78 104 0.0 3.0 0.00 0.00 0.00 81 1009.5
20260904124519 76 104 0.0 1.0 0.00 0.00 0.00 85 1009.4
20260904123016 75 104 0.0 0.0 0.00 0.00 0.00 86 1009.2
20260904121516 75 104 0.0 0.0 0.00 0.00 0.00 85 1009.1
20260904120014 75 104 0.0 0.0 0.00 0.00 0.00 84 1008.8
20260904114508 76 104 0.0 2.0 0.00 0.00 0.00 83 1008.6
20260904113016 76 104 0.0 0.0 0.00 0.00 0.00 82 1008.5
20260904111504 77 104 1.0 3.0 0.00 0.00 0.00 81 1008.2
20260904110003 77 119 1.0 3.0 0.00 0.00 0.00 80 1008.2
20260904104502 77 127 0.0 4.0 0.00 0.00 0.00 80 1008.1
20260904103101 76 155 0.0 2.0 0.00 0.00 0.00 81 1008.0
20260904101608 76 154 0.0 0.0 0.00 0.00 0.00 80 1007.9
20260904100107 77 154 0.0 0.0 0.00 0.00 0.00 79 1007.8
20260904094604 78 154 0.0 0.0 0.00 0.00 0.00 78 1007.8
20260904093048 79 154 0.0 2.0 0.00 0.00 0.00 75 1007.6
20260904091554 80 154 0.0 0.0 0.00 0.00 0.00 73 1007.2
20260904090046 80 239 0.0 4.0 0.00 0.00 0.00 73 1007.2
20260904084545 81 116 0.0 5.0 0.00 0.00 0.00 72 1007.0
20260904083048 81 193 0.0 4.0 0.00 0.00 0.00 72 1007.1
20260904081543 81 193 0.0 4.0 0.00 0.00 0.00 72 1007.1
20260904080043 80 193 0.0 3.0 0.00 0.00 0.00 73 1006.9
20260904074548 80 237 0.0 2.0 0.00 0.00 0.00 73 1007.0
20260904073047 81 237 0.0 0.0 0.00 0.00 0.00 71 1007.1
20260904071540 81 237 0.0 0.0 0.00 0.00 0.00 70 1007.1
20260904070039 82 237 0.0 3.0 0.00 0.00 0.00 69 1007.1
20260904064538 82 237 1.0 3.0 0.00 0.00 0.00 68 1007.2
20260904063039 82 240 0.0 3.0 0.00 0.00 0.00 68 1007.2
20260904061537 82 241 2.0 4.0 0.00 0.00 0.00 68 1007.2
20260904060052 82 146 0.0 2.0 0.00 0.00 0.00 69 1007.3
20260904054545 81 145 0.0 3.0 0.00 0.00 0.00 70 1007.2
20260904053039 80 145 0.0 2.0 0.00 0.00 0.00 73 1007.2
20260904051529 80 145 0.0 1.0 0.00 0.00 0.00 74 1007.1
20260904050035 80 145 0.0 1.0 0.00 0.00 0.00 74 1007.0
20260904044526 81 145 0.0 1.0 0.00 0.00 0.00 73 1006.9
20260904043039 81 145 0.0 0.0 0.00 0.00 0.00 71 1006.9
20260904041527 82 145 0.0 0.0 0.00 0.00 0.00 71 1006.7
20260904040034 83 145 0.0 2.0 0.00 0.00 0.00 69 1006.7
20260904034524 83 145 0.0 0.0 0.00 0.00 0.00 68 1006.7
20260904033026 83 145 0.0 1.0 0.00 0.00 0.00 68 1006.8
20260904031523 83 145 0.0 2.0 0.00 0.00 0.00 68 1006.8
20260904030023 83 145 0.0 1.0 0.00 0.00 0.00 71 1006.6
20260904024533 83 145 0.0 1.0 0.00 0.00 0.00 71 1006.4
20260904023022 83 145 0.0 0.0 0.00 0.00 0.00 71 1006.3
20260904021522 84 145 0.0 0.0 0.00 0.00 0.00 69 1006.3
20260904020022 85 145 0.0 0.0 0.00 0.00 0.00 68 1006.1
20260904014527 86 145 0.0 0.0 0.00 0.00 0.00 65 1006.0
20260904013020 88 145 0.0 0.0 0.00 0.00 0.00 62 1005.8
20260904011520 89 145 0.0 0.0 0.00 0.00 0.00 58 1005.5
20260904010020 90 146 0.0 1.0 0.00 0.00 0.00 56 1005.5
20260904004519 91 146 0.0 3.0 0.00 0.00 0.00 54 1005.3
20260904003021 93 174 0.0 1.0 0.00 0.00 0.00 52 1005.3
20260904001518 94 130 0.0 2.0 0.00 0.00 0.00 50 1005.3
20260904000019 95 133 2.0 5.0 0.00 0.00 0.00 49 1005.2
20260903234528 96 143 1.0 4.0 0.00 0.00 0.00 48 1005.2
20260903233028 96 122 0.0 8.0 0.00 0.00 0.00 48 1005.2
20260903231517 97 138 0.0 5.0 0.00 0.00 0.00 47 1005.2
20260903230018 97 146 1.0 8.0 0.00 0.00 0.00 46 1005.2
20260903224514 97 107 4.0 8.0 0.00 0.00 0.00 45 1005.3
20260903223014 98 108 3.0 8.0 0.00 0.00 0.00 46 1005.4
20260903221514 97 99 1.0 9.0 0.00 0.00 0.00 46 1005.4
20260903220016 97 116 2.0 11.0 0.00 0.00 0.00 46 1005.3
20260903214523 98 250 4.0 14.0 0.00 0.00 0.00 48 1005.4
20260903213010 97 169 4.0 8.0 0.00 0.00 0.00 47 1005.5
20260903211508 97 187 4.0 11.0 0.00 0.00 0.00 47 1005.6
20260903210014 97 196 3.0 14.0 0.00 0.00 0.00 46 1005.7
20260903204506 97 187 2.0 11.0 0.00 0.00 0.00 49 1005.8
20260903203004 96 226 4.0 13.0 0.00 0.00 0.00 48 1006.1
20260903201503 97 189 1.0 10.0 0.00 0.00 0.00 48 1006.3
20260903200001 97 81 2.0 12.0 0.00 0.00 0.00 48 1006.4